Hayward, WI

10:49 AM CDT on August 20, 2017 (GMT -0500)
Sawyer County

Weather History for KHYR - September, 2013

Change the Weather History Date:

Friday, September 13, 2013

  Actual Average Record
Temperature  
Mean Temperature 48 °F -  
Max Temperature 64 °F 79 °F 86 °F (1998)
Min Temperature 33 °F 53 °F 30 °F (1996)
Degree Days  
Heating Degree Days 17    
Moisture  
Dew Point 38 °F    
Average Humidity 89    
Maximum Humidity 100    
Minimum Humidity 46    
Precipitation  
Precipitation 0.00 in - - ()
Sea Level Pressure  
Sea Level Pressure 30.25 in    
Wind  
Wind Speed 0 mph (NE)    
Max Wind Speed 4 mph    
Max Gust Speed -    
Visibility 5 miles    
Events Fog    
Averages and records for this station are not official NWS values.
T = Trace of Precipitation, MM = Missing Value Source: NWS Daily Summary

Daily Weather History Graph

Daily Weather History Graph

Search for Another Location

Airport or City:

Trip Planner

Search our weather history database for the weather conditions in past years. The results will help you decide how hot, cold, wet, or windy it might be!

Date:

Astronomy

Sep. 13, 2013 Rise Set
Actual Time 6:41 AM CDT 7:20 PM CDT
Civil Twilight 6:11 AM CDT 7:50 PM CDT
Nautical Twilight 5:35 AM CDT 8:26 PM CDT
Astronomical Twilight 4:58 AM CDT 9:03 PM CDT
Moon 3:24 PM CDT (9/13) No Moon Set
Length of Visible Light 13h 38m
Length of Day
12h 38m
First Quarter, 61% of the Moon is Illuminated
Sep 13
First Quarter
Sep 19
Full
Sep 26
Last Quarter
Oct 4
New
Oct 11
First Quarter

Hourly Weather History & Observations

Time (CDT) Temp. Dew Point Humidity Pressure Visibility Wind Dir Wind Speed Gust Speed Precip Events Conditions
12:06 AM 39.2 °F 37.4 °F 93% 30.24 in 10.0 mi Calm Calm - N/A   Partly Cloudy
12:53 AM 37.9 °F 37.0 °F 97% 30.27 in 10.0 mi Calm Calm - N/A   Clear
1:00 AM 37.4 °F 35.6 °F 93% 30.25 in 2.5 mi Calm Calm - N/A   Partly Cloudy
1:04 AM 37.4 °F 35.6 °F 93% 30.25 in 1.0 mi Calm Calm - N/A   Mist
1:11 AM 37.4 °F 35.6 °F 93% 30.25 in 0.8 mi Calm Calm - N/A   Mist
1:17 AM 37.4 °F 35.6 °F 93% 30.25 in 1.2 mi Calm Calm - N/A   Mostly Cloudy
1:24 AM 37.4 °F 35.6 °F 93% 30.25 in 4.0 mi Calm Calm - N/A   Mostly Cloudy
1:44 AM 35.6 °F 35.6 °F 100% 30.25 in 10.0 mi Calm Calm - N/A   Partly Cloudy
1:53 AM 36.0 °F 35.1 °F 97% 30.27 in 10.0 mi Calm Calm - N/A   Partly Cloudy
2:13 AM 35.6 °F 33.8 °F 93% 30.25 in 10.0 mi Calm Calm - N/A   Mostly Cloudy
2:27 AM 35.6 °F 35.6 °F 100% 30.25 in 2.5 mi Calm Calm - N/A   Overcast
2:36 AM 35.6 °F 33.8 °F 93% 30.25 in 10.0 mi Calm Calm - N/A   Overcast
2:43 AM 35.6 °F 33.8 °F 93% 30.25 in 1.5 mi Calm Calm - N/A   Overcast
2:45 AM 35.6 °F 33.8 °F 93% 30.25 in 0.8 mi Calm Calm - N/A   Overcast
2:53 AM 35.1 °F 35.1 °F 100% 30.27 in 0.2 mi Calm Calm - N/A Fog Fog
3:21 AM 35.6 °F 35.6 °F 100% 30.25 in 1.0 mi Calm Calm - N/A   Overcast
3:31 AM 35.6 °F 35.6 °F 100% 30.25 in 0.5 mi Calm Calm - N/A Fog Fog
3:53 AM 36.0 °F 35.1 °F 97% 30.28 in 0.8 mi Calm Calm - N/A   Mist
3:56 AM 35.6 °F 33.8 °F 93% 30.25 in 1.2 mi Calm Calm - N/A   Overcast
4:07 AM 35.6 °F 33.8 °F 93% 30.25 in 0.8 mi Calm Calm - N/A   Mist
4:30 AM 35.6 °F 33.8 °F 93% 30.26 in 1.2 mi Calm Calm - N/A   Overcast
4:38 AM 33.8 °F 33.8 °F 100% 30.26 in 3.0 mi Calm Calm - N/A   Overcast
4:47 AM 33.8 °F 33.8 °F 100% 30.26 in 1.8 mi Calm Calm - N/A   Overcast
4:53 AM 35.1 °F 34.0 °F 96% 30.28 in 1.0 mi Calm Calm - N/A   Overcast
5:01 AM 35.6 °F 33.8 °F 93% 30.26 in 0.5 mi Calm Calm - N/A Fog Fog
5:41 AM 35.6 °F 33.8 °F 93% 30.27 in 1.2 mi Calm Calm - N/A   Overcast
5:48 AM 33.8 °F 33.8 °F 100% 30.27 in 0.8 mi Calm Calm - N/A   Mist
5:53 AM 35.1 °F 34.0 °F 96% 30.30 in 0.8 mi Calm Calm - N/A   Mist
6:07 AM 35.6 °F 33.8 °F 93% 30.27 in 1.5 mi Calm Calm - N/A   Overcast
6:14 AM 33.8 °F 33.8 °F 100% 30.27 in 0.8 mi Calm Calm - N/A   Mist
6:53 AM 34.0 °F 34.0 °F 100% 30.31 in 0.2 mi Calm Calm - N/A Fog Fog
7:53 AM 37.9 °F 37.9 °F 100% 30.31 in 0.2 mi Calm Calm - N/A Fog Fog
8:06 AM 39.2 °F 39.2 °F 100% 30.28 in 1.5 mi Calm Calm - N/A   Overcast
8:25 AM 42.8 °F 42.8 °F 100% 30.28 in 3.0 mi Calm Calm - N/A   Overcast
8:36 AM 42.8 °F 42.8 °F 100% 30.28 in 1.8 mi Calm Calm - N/A   Overcast
8:43 AM 44.6 °F 42.8 °F 93% 30.28 in 3.0 mi Calm Calm - N/A   Mostly Cloudy
8:53 AM 46.0 °F 45.0 °F 96% 30.30 in 10.0 mi Calm Calm - N/A   Scattered Clouds
9:53 AM 53.1 °F 46.9 °F 80% 30.31 in 10.0 mi Calm Calm - N/A   Clear
10:53 AM 55.9 °F 45.0 °F 67% 30.31 in 10.0 mi Calm Calm - N/A   Partly Cloudy
11:53 AM 57.0 °F 44.1 °F 62% 30.30 in 10.0 mi Calm Calm - N/A   Clear
12:53 PM 61.0 °F 44.1 °F 54% 30.28 in 10.0 mi North 3.5 mph - N/A   Overcast
1:53 PM 61.0 °F 44.1 °F 54% 30.26 in 10.0 mi Calm Calm - N/A   Overcast
2:53 PM 62.1 °F 43.0 °F 50% 30.24 in 10.0 mi NE 3.5 mph - N/A   Mostly Cloudy
3:53 PM 63.0 °F 42.1 °F 46% 30.21 in 10.0 mi SSE 3.5 mph - N/A   Clear
4:53 PM 59.0 °F 48.0 °F 67% 30.20 in 10.0 mi Calm Calm - N/A   Partly Cloudy
5:53 PM 63.0 °F 44.1 °F 50% 30.19 in 10.0 mi Calm Calm - N/A   Clear
6:53 PM 55.0 °F 46.9 °F 74% 30.18 in 10.0 mi Calm Calm - N/A   Clear
7:53 PM 50.0 °F 46.9 °F 89% 30.17 in 10.0 mi Calm Calm - N/A   Clear
8:53 PM 45.0 °F 43.0 °F 93% 30.17 in 10.0 mi Calm Calm - N/A   Clear
9:53 PM 43.0 °F 39.9 °F 89% 30.16 in 10.0 mi Calm Calm - N/A   Clear
10:53 PM 39.9 °F 39.0 °F 97% 30.15 in 10.0 mi Calm Calm - N/A   Clear
11:53 PM 39.0 °F 37.9 °F 96% 30.14 in 10.0 mi Calm Calm - N/A   Clear